Regional Weather Roundup
Issued by NWS Huntsville, AL

Home | Current Version | Previous Version | Text Only | Print | Product List | Glossary On
Versions: 1 2 3 4 5 6 7 8 9 10 11 12 13 14 15 16 17 18 19 20 21 22 23 24 25 26 27 28 29 30 31 32 33 34 35 36 37 38 39 40 41 42 43 44 45 46 47 48 49 50
000
ASUS44 KHUN 280110
RWRHUN

WEATHER ROUNDUP FOR THE TENNESSEE VALLEY
NATIONAL WEATHER SERVICE HUNTSVILLE AL
800 PM CDT THU AUG 27 2015

ALZ001>004-280200-
NORTHWEST ALABAMA

CITY           SKY/WX    TMP DP  RH WIND       PRES   REMARKS
COURTLAND HCN    N/A     73 N/A N/A CALM        N/A
BANKHEAD NF      N/A     69  65  86 CALM        N/A
RUSSELLVILLE     N/A     68 N/A N/A MISG        N/A
SHOALS AIRPORT CLEAR     74  59  59 N3        30.06R
SHOALS TVA RES   N/A     75 N/A N/A MISG        N/A
$$

ALZ005>007-016-280200-
NORTH CENTRAL ALABAMA

CITY           SKY/WX    TMP DP  RH WIND       PRES   REMARKS
CULLMAN AG STN   N/A     73 N/A N/A N3          N/A
DECATUR AP     CLEAR     72  64  76 N5        30.05R
HUNTSVILLE AP  CLEAR     76  63  64 N6        30.04R
HUN NWS/UAH      N/A     76  61  58 N2          N/A
MERIDIANVILLE  CLEAR     70  61  73 N3        30.06R
REDSTONE ARSN  CLEAR     74  63  69 N8        30.04R
VINEMONT AP    FAIR      68  64  88 CALM      30.08R
$$

ALZ008>010-280200-
NORTHEAST ALABAMA

CITY           SKY/WX    TMP DP  RH WIND       PRES   REMARKS
ALBERTVILLE    PTCLDY    73  70  88 N5        30.04S
FORT PAYNE     PTCLDY    72  64  78 NE3       30.05R
SCOTTSBORO AP  PTCLDY    73  68  83 CALM      30.05R
SCOTTSBORO HCN   N/A     72 N/A N/A MISG        N/A
VALLEY HEAD      N/A     72 N/A N/A MISG        N/A
$$

TNZ076-096-097-280200-
SOUTHEASTERN MIDDLE TENNESSEE

CITY           SKY/WX    TMP DP  RH WIND       PRES   REMARKS
TULLAHOMA      CLEAR     70  61  73 NE3       30.10R
WINCHESTER     CLEAR     72  64  78 N5        30.08R
$$

...SURROUNDING SITES...

CITY           SKY/WX    TMP DP  RH WIND       PRES   REMARKS
ATLANTA        PTCLDY    79  63  57 NE9       30.05R
ANNISTON       CLEAR     76  65  68 CALM      30.02R
BIRMINGHAM     PTCLDY    78  66  66 N3        30.03R
CHATTANOOGA    PTCLDY    78  62  57 NE5       30.06R
DALTON         MOCLDY    73  68  83 CALM      30.06R
GADSDEN        PTCLDY    75  63  64 N5        30.02R
GOLDEN TRNGL   CLEAR     73  57  56 N9        30.01S
HALEYVILLE     FAIR      69  66  90 CALM      30.07S
JACKSON TN     CLEAR     68  60  75 CALM      30.06S
MEMPHIS        PTCLDY    75  57  53 N7        30.05R
NASHVILLE      PTCLDY    73  54  51 NE8       30.08S
OXFORD MS      FAIR      66  59  77 CALM      30.06S
ROME           PTCLDY    76  68  76 CALM      30.04R
SAVANNAH       CLEAR     66  32  28 CALM      30.06S
TUPELO         CLEAR     71  60  68 NE5       30.03S
TUSCALOOSA     CLEAR     79  65  62 CALM      30.00R
$$

...GULF COAST WEATHER...

CITY           SKY/WX    TMP DP  RH WIND       PRES   REMARKS
GULFPORT       CLOUDY    80  64  58 N6        29.96R
PASCAGOULA     CLEAR     73  68  84 CALM      29.96R
MOBILE         PTCLDY    77  64  64 N5        29.97R
GULF SHORES    CLEAR     77  69  75 S3        29.95R
PENSACOLA      PTCLDY    74  67  78 W3        29.94R
DESTIN         CLEAR     82  65  56 W3        29.94R
PANAMA CITY    PTCLDY    77  65  66 NW6       29.94R
APPALACHICOLA  CLEAR     80  68  66 NW5       29.93S
$$




USA.gov is the U.S. government's official web portal to all federal, state and local government web resources and services.